Time,TemperatureF,DewpointF,PressureIn,WindDirection,WindDirectionDegrees,WindSpeedMPH,WindSpeedGustMPH,Humidity,HourlyPrecipIn,Conditions,Clouds,dailyrainin,SoftwareType,DateUTC
2013-03-07 00:11:00,39.0,30.1,29.93,NW,315,3.1,-999.0,70,-99.99,,,0.00,Acu-Link.com,2013-03-07 05:11:00,
2013-03-07 00:26:00,38.5,29.9,29.93,West,270,1.6,-999.0,71,-99.99,,,0.00,Acu-Link.com,2013-03-07 05:26:00,
2013-03-07 00:41:00,38.3,30.1,29.94,North,0,2.2,-999.0,72,-99.99,,,0.00,Acu-Link.com,2013-03-07 05:41:00,
2013-03-07 00:57:00,38.1,29.9,29.94,NNW,337,1.6,-999.0,72,-99.99,,,0.00,Acu-Link.com,2013-03-07 05:57:00,
2013-03-07 01:12:00,38.1,29.9,29.94,WSW,247,1.6,-999.0,72,-99.99,,,0.00,Acu-Link.com,2013-03-07 06:12:00,
2013-03-07 01:27:00,37.9,29.7,29.95,NNW,337,1.6,-999.0,72,-99.99,,,0.00,Acu-Link.com,2013-03-07 06:27:00,
2013-03-07 01:42:00,37.6,30.1,29.96,NNW,337,2.2,-999.0,74,-99.99,,,0.00,Acu-Link.com,2013-03-07 06:42:00,
2013-03-07 01:57:00,37.0,29.9,29.96,West,270,1.6,-999.0,75,-99.99,,,0.00,Acu-Link.com,2013-03-07 06:57:00,
2013-03-07 02:13:00,36.7,29.8,29.96,NW,315,0.0,-999.0,76,-99.99,,,0.00,Acu-Link.com,2013-03-07 07:13:00,
2013-03-07 02:28:00,36.9,29.7,29.97,North,0,1.6,-999.0,75,-99.99,,,0.00,Acu-Link.com,2013-03-07 07:28:00,
2013-03-07 02:43:00,37.2,30.0,29.96,North,0,2.2,-999.0,75,-99.99,,,0.00,Acu-Link.com,2013-03-07 07:43:00,
2013-03-07 02:59:00,37.2,30.0,29.96,SW,225,0.0,-999.0,75,-99.99,,,0.00,Acu-Link.com,2013-03-07 07:59:00,
2013-03-07 03:14:00,36.9,29.7,29.97,WNW,292,0.0,-999.0,75,-99.99,,,0.00,Acu-Link.com,2013-03-07 08:14:00,
2013-03-07 03:29:00,36.7,29.5,29.97,West,270,1.1,-999.0,75,-99.99,,,0.00,Acu-Link.com,2013-03-07 08:29:00,
2013-03-07 04:00:00,36.3,29.5,29.97,NNE,22,0.0,-999.0,76,-99.99,,,0.00,Acu-Link.com,2013-03-07 09:00:00,
2013-03-07 04:15:00,35.8,29.6,29.96,WNW,292,0.0,-999.0,78,-99.99,,,0.00,Acu-Link.com,2013-03-07 09:15:00,
2013-03-07 04:30:00,35.1,29.5,29.97,WNW,292,0.0,-999.0,80,-99.99,,,0.00,Acu-Link.com,2013-03-07 09:30:00,
2013-03-07 04:45:00,34.3,29.4,29.97,North,0,0.0,-999.0,82,-99.99,,,0.00,Acu-Link.com,2013-03-07 09:45:00,
2013-03-07 05:01:00,33.6,29.6,29.99,North,0,0.0,-999.0,85,-99.99,,,0.00,Acu-Link.com,2013-03-07 10:01:00,
2013-03-07 05:16:00,33.1,29.4,30.00,NE,45,0.0,-999.0,86,-99.99,,,0.00,Acu-Link.com,2013-03-07 10:16:00,
2013-03-07 05:31:00,33.1,29.6,30.00,NNW,337,0.0,-999.0,87,-99.99,,,0.00,Acu-Link.com,2013-03-07 10:31:00,
2013-03-07 05:47:00,32.7,29.3,30.00,NNW,337,0.0,-999.0,87,-99.99,,,0.00,Acu-Link.com,2013-03-07 10:47:00,
2013-03-07 06:02:00,32.2,28.8,30.01,NNW,337,0.0,-999.0,87,-99.99,,,0.00,Acu-Link.com,2013-03-07 11:02:00,
2013-03-07 06:17:00,31.8,28.7,30.02,NNW,337,0.0,-999.0,88,-99.99,,,0.00,Acu-Link.com,2013-03-07 11:17:00,
2013-03-07 06:33:00,31.3,28.4,30.02,NNW,337,0.0,-999.0,89,-99.99,,,0.00,Acu-Link.com,2013-03-07 11:33:00,
2013-03-07 06:48:00,30.7,28.4,30.04,NNW,337,0.0,-999.0,91,-99.99,,,0.00,Acu-Link.com,2013-03-07 11:48:00,
2013-03-07 07:03:00,30.7,29.0,30.04,NNE,22,0.0,-999.0,93,-99.99,,,0.00,Acu-Link.com,2013-03-07 12:03:00,
2013-03-07 07:18:00,30.9,29.4,30.05,NNE,22,0.0,-999.0,94,-99.99,,,0.00,Acu-Link.com,2013-03-07 12:18:00,
2013-03-07 07:34:00,31.8,29.8,30.05,NNE,22,0.0,-999.0,92,-99.99,,,0.00,Acu-Link.com,2013-03-07 12:34:00,
2013-03-07 07:49:00,33.4,30.8,30.06,NNW,337,0.0,-999.0,90,-99.99,,,0.00,Acu-Link.com,2013-03-07 12:49:00,
2013-03-07 08:04:00,35.8,30.5,30.07,NNW,337,1.6,-999.0,81,-99.99,,,0.00,Acu-Link.com,2013-03-07 13:04:00,
2013-03-07 08:20:00,39.0,30.4,30.08,NNW,337,4.3,-999.0,71,-99.99,,,0.00,Acu-Link.com,2013-03-07 13:20:00,
2013-03-07 08:35:00,41.0,30.5,30.08,NNW,337,1.6,-999.0,66,-99.99,,,0.00,Acu-Link.com,2013-03-07 13:35:00,
2013-03-07 08:50:00,42.3,31.0,30.08,WNW,292,3.1,-999.0,64,-99.99,,,0.00,Acu-Link.com,2013-03-07 13:50:00,
2013-03-07 09:06:00,43.5,31.0,30.08,NNE,22,1.6,-999.0,61,-99.99,,,0.00,Acu-Link.com,2013-03-07 14:06:00,
2013-03-07 09:21:00,45.0,31.9,30.08,WSW,247,0.0,-999.0,60,-99.99,,,0.00,Acu-Link.com,2013-03-07 14:21:00,
2013-03-07 09:36:00,45.7,31.8,30.09,NNE,22,3.1,-999.0,58,-99.99,,,0.00,Acu-Link.com,2013-03-07 14:36:00,
2013-03-07 09:51:00,46.8,31.5,30.08,SW,225,2.2,-999.0,55,-99.99,,,0.00,Acu-Link.com,2013-03-07 14:51:00,
2013-03-07 10:06:00,47.8,31.1,30.08,NW,315,2.7,-999.0,52,-99.99,,,0.00,Acu-Link.com,2013-03-07 15:06:00,
2013-03-07 10:21:00,48.7,31.4,30.08,ENE,67,2.7,-999.0,51,-99.99,,,0.00,Acu-Link.com,2013-03-07 15:21:00,
2013-03-07 10:37:00,48.2,30.9,30.08,North,0,3.8,-999.0,51,-99.99,,,0.00,Acu-Link.com,2013-03-07 15:37:00,
2013-03-07 10:52:00,48.9,31.1,30.07,NNE,22,10.3,-999.0,50,-99.99,,,0.00,Acu-Link.com,2013-03-07 15:52:00,
2013-03-07 11:07:00,49.5,31.1,30.07,NNW,337,2.2,-999.0,49,-99.99,,,0.00,Acu-Link.com,2013-03-07 16:07:00,
2013-03-07 11:22:00,48.7,30.4,30.08,NNW,337,3.8,-999.0,49,-99.99,,,0.00,Acu-Link.com,2013-03-07 16:22:00,
2013-03-07 11:38:00,49.8,30.9,30.07,NNW,337,5.1,-999.0,48,-99.99,,,0.00,Acu-Link.com,2013-03-07 16:38:00,
2013-03-07 11:53:00,48.7,30.4,30.07,West,270,3.1,-999.0,49,-99.99,,,0.00,Acu-Link.com,2013-03-07 16:53:00,
2013-03-07 12:08:00,50.2,30.7,30.07,NW,315,3.1,-999.0,47,-99.99,,,0.00,Acu-Link.com,2013-03-07 17:08:00,
2013-03-07 12:24:00,50.0,31.1,30.06,NW,315,1.6,-999.0,48,-99.99,,,0.00,Acu-Link.com,2013-03-07 17:24:00,
2013-03-07 12:39:00,50.2,30.7,30.06,NE,45,4.3,-999.0,47,-99.99,,,0.00,Acu-Link.com,2013-03-07 17:39:00,
2013-03-07 12:54:00,49.5,30.6,30.05,SE,135,6.3,-999.0,48,-99.99,,,0.00,Acu-Link.com,2013-03-07 17:54:00,
2013-03-07 13:10:00,50.0,30.0,30.05,NNW,337,4.3,-999.0,46,-99.99,,,0.00,Acu-Link.com,2013-03-07 18:10:00,
2013-03-07 13:25:00,50.0,30.6,30.04,NNE,22,2.7,-999.0,47,-99.99,,,0.00,Acu-Link.com,2013-03-07 18:25:00,
2013-03-07 13:40:00,50.2,30.2,30.04,NE,45,2.7,-999.0,46,-99.99,,,0.00,Acu-Link.com,2013-03-07 18:40:00,
2013-03-07 13:55:00,50.5,30.0,30.04,NW,315,7.4,-999.0,45,-99.99,,,0.00,Acu-Link.com,2013-03-07 18:55:00,
2013-03-07 14:11:00,50.2,29.7,30.04,WNW,292,6.3,-999.0,45,-99.99,,,0.00,Acu-Link.com,2013-03-07 19:11:00,
2013-03-07 14:26:00,51.3,31.2,30.04,NNW,337,4.3,-999.0,46,-99.99,,,0.00,Acu-Link.com,2013-03-07 19:26:00,
2013-03-07 14:41:00,50.5,30.0,30.04,WNW,292,8.9,-999.0,45,-99.99,,,0.00,Acu-Link.com,2013-03-07 19:41:00,
2013-03-07 14:57:00,50.5,30.5,30.04,West,270,4.7,-999.0,46,-99.99,,,0.00,Acu-Link.com,2013-03-07 19:57:00,
2013-03-07 15:27:00,49.8,29.9,30.04,WNW,292,1.6,-999.0,46,-99.99,,,0.00,Acu-Link.com,2013-03-07 20:27:00,
2013-03-07 15:42:00,50.4,29.8,30.04,NW,315,1.6,-999.0,45,-99.99,,,0.00,Acu-Link.com,2013-03-07 20:42:00,
2013-03-07 15:57:00,50.9,29.8,30.04,NNE,22,2.2,-999.0,44,-99.99,,,0.00,Acu-Link.com,2013-03-07 20:57:00,
2013-03-07 16:12:00,50.9,30.3,30.04,West,270,6.7,-999.0,45,-99.99,,,0.00,Acu-Link.com,2013-03-07 21:12:00,
2013-03-07 16:27:00,50.4,29.8,30.04,NE,45,4.3,-999.0,45,-99.99,,,0.00,Acu-Link.com,2013-03-07 21:27:00,
2013-03-07 16:43:00,49.8,29.9,30.05,NNE,22,6.3,-999.0,46,-99.99,,,0.00,Acu-Link.com,2013-03-07 21:43:00,
2013-03-07 16:58:00,49.3,29.9,30.05,NNW,337,1.6,-999.0,47,-99.99,,,0.00,Acu-Link.com,2013-03-07 21:58:00,
2013-03-07 17:13:00,49.1,29.2,30.06,NE,45,3.1,-999.0,46,-99.99,,,0.00,Acu-Link.com,2013-03-07 22:13:00,
2013-03-07 17:29:00,48.9,29.6,30.06,WNW,292,3.1,-999.0,47,-99.99,,,0.00,Acu-Link.com,2013-03-07 22:29:00,
2013-03-07 17:44:00,48.6,28.7,30.07,ENE,67,3.8,-999.0,46,-99.99,,,0.00,Acu-Link.com,2013-03-07 22:44:00,
2013-03-07 17:59:00,48.2,28.9,30.07,West,270,1.6,-999.0,47,-99.99,,,0.00,Acu-Link.com,2013-03-07 22:59:00,
2013-03-07 18:15:00,47.3,29.1,30.08,WNW,292,3.8,-999.0,49,-99.99,,,0.00,Acu-Link.com,2013-03-07 23:15:00,
2013-03-07 18:30:00,46.4,28.8,30.09,WNW,292,1.6,-999.0,50,-99.99,,,0.00,Acu-Link.com,2013-03-07 23:30:00,
2013-03-07 18:45:00,45.5,28.4,30.09,NW,315,0.0,-999.0,51,-99.99,,,0.00,Acu-Link.com,2013-03-07 23:45:00,
2013-03-07 19:00:00,44.6,29.0,30.10,NW,315,0.0,-999.0,54,-99.99,,,0.00,Acu-Link.com,2013-03-08 00:00:00,
2013-03-07 19:16:00,43.9,28.3,30.10,North,0,0.0,-999.0,54,-99.99,,,0.00,Acu-Link.com,2013-03-08 00:16:00,
2013-03-07 19:31:00,43.0,29.2,30.11,NW,315,0.0,-999.0,58,-99.99,,,0.00,Acu-Link.com,2013-03-08 00:31:00,
2013-03-07 19:46:00,42.4,29.1,30.11,SW,225,0.0,-999.0,59,-99.99,,,0.00,Acu-Link.com,2013-03-08 00:46:00,
2013-03-07 20:02:00,41.9,29.4,30.12,NW,315,2.2,-999.0,61,-99.99,,,0.00,Acu-Link.com,2013-03-08 01:02:00,
2013-03-07 20:17:00,41.7,28.9,30.12,NNW,337,0.0,-999.0,60,-99.99,,,0.00,Acu-Link.com,2013-03-08 01:17:00,
2013-03-07 20:32:00,41.5,27.9,30.12,West,270,1.6,-999.0,58,-99.99,,,0.00,Acu-Link.com,2013-03-08 01:32:00,
2013-03-07 20:48:00,41.7,28.0,30.13,NNW,337,1.6,-999.0,58,-99.99,,,0.00,Acu-Link.com,2013-03-08 01:48:00,
2013-03-07 21:03:00,41.5,27.9,30.13,NNW,337,0.0,-999.0,58,-99.99,,,0.00,Acu-Link.com,2013-03-08 02:03:00,
2013-03-07 21:18:00,41.2,27.5,30.14,North,0,0.0,-999.0,58,-99.99,,,0.00,Acu-Link.com,2013-03-08 02:18:00,
2013-03-07 21:33:00,41.2,27.5,30.14,WNW,292,0.0,-999.0,58,-99.99,,,0.00,Acu-Link.com,2013-03-08 02:33:00,
2013-03-07 21:48:00,41.2,27.5,30.14,NW,315,0.0,-999.0,58,-99.99,,,0.00,Acu-Link.com,2013-03-08 02:48:00,
2013-03-07 22:04:00,40.5,27.3,30.15,WNW,292,0.0,-999.0,59,-99.99,,,0.00,Acu-Link.com,2013-03-08 03:04:00,
2013-03-07 22:19:00,39.4,27.1,30.15,West,270,0.0,-999.0,61,-99.99,,,0.00,Acu-Link.com,2013-03-08 03:19:00,
2013-03-07 22:34:00,38.7,27.9,30.14,NNW,337,0.0,-999.0,65,-99.99,,,0.00,Acu-Link.com,2013-03-08 03:34:00,
2013-03-07 22:49:00,38.1,27.4,30.15,NNW,337,0.0,-999.0,65,-99.99,,,0.00,Acu-Link.com,2013-03-08 03:49:00,
2013-03-07 23:05:00,37.4,27.8,30.15,NNW,337,0.0,-999.0,68,-99.99,,,0.00,Acu-Link.com,2013-03-08 04:05:00,
2013-03-07 23:20:00,37.0,27.1,30.15,NNW,337,0.0,-999.0,67,-99.99,,,0.00,Acu-Link.com,2013-03-08 04:20:00,
2013-03-07 23:35:00,36.5,27.0,30.15,NW,315,0.0,-999.0,68,-99.99,,,0.00,Acu-Link.com,2013-03-08 04:35:00,
2013-03-07 23:50:00,36.1,27.0,30.14,WSW,247,0.0,-999.0,69,-99.99,,,0.00,Acu-Link.com,2013-03-08 04:50:00,